This is the latest recevied weather packets stored in our database for station/object SQ6RR-12. If no packets are shown the sender has not sent any weather packets the latest 10 day(s).
| Time | Temp. | Humidity | Pressure | Rain* | Wind** | Luminosity | Snow |
|---|---|---|---|---|---|---|---|
| 1778158777 | 14.44° C | 10% | 1013.2 hPa | 0 mm | - | - | - |
| 1778158507 | 13.89° C | 10% | 1013.2 hPa | 0 mm | - | - | - |
| 1778158254 | 14.44° C | 10% | 1013.1 hPa | 0 mm | - | - | - |
| 1778157993 | 15° C | 10% | 1013.2 hPa | 0 mm | - | - | - |
| 1778157717 | 13.89° C | 10% | 1013 hPa | 0 mm | - | - | - |
| 1778157458 | 14.44° C | 10% | 1012.9 hPa | 0 mm | - | - | - |
| 1778157183 | 14.44° C | 10% | 1012.9 hPa | 0 mm | - | - | - |
| 1778156926 | 14.44° C | 10% | 1012.9 hPa | 0 mm | - | - | - |
| 1778156643 | 15° C | 10% | 1012.8 hPa | 0 mm | - | - | - |
| 1778156369 | 15° C | 10% | 1012.8 hPa | 0 mm | - | - | - |
| 1778156098 | 14.44° C | 10% | 1012.7 hPa | 0 mm | - | - | - |
| 1778155836 | 15.56° C | 10% | 1012.8 hPa | 0 mm | - | - | - |
| 1778155569 | 15.56° C | 10% | 1012.7 hPa | 0 mm | - | - | - |
| 1778155307 | 16.11° C | 10% | 1012.6 hPa | 0 mm | - | - | - |
| 1778155052 | 15° C | 10% | 1012.6 hPa | 0 mm | - | - | - |
| 1778154787 | 15° C | 10% | 1012.5 hPa | 0 mm | - | - | - |
| 1778154507 | 15° C | 10% | 1012.6 hPa | 0 mm | - | - | - |
| 1778154239 | 16.11° C | 10% | 1012.5 hPa | 0 mm | - | - | - |
| 1778153978 | 16.67° C | 10% | 1012.5 hPa | 0 mm | - | - | - |
| 1778153706 | 17.22° C | 10% | 1012.5 hPa | 0 mm | - | - | - |
| 1778153418 | 17.22° C | 10% | 1012.5 hPa | 0 mm | - | - | - |
| 1778153156 | 17.22° C | 10% | 1012.5 hPa | 0 mm | - | - | - |
| 1778152878 | 16.67° C | 10% | 1012.5 hPa | 0 mm | - | - | - |
| 1778152611 | 16.67° C | 10% | 1012.5 hPa | 0 mm | - | - | - |
| 1778152343 | 16.67° C | 10% | 1012.4 hPa | 0 mm | - | - | - |
* Rain latest hour (hover to see other rain measurements)
** Current wind speed in m/s (hover to see current wind gust speed)